Weather Roundup
Issued by NWS

Home | Current Version | Previous Version | Text Only | Print | Product List | Glossary On
Versions: 1 2 3 4 5 6 7 8 9 10 11 12 13 14 15 16 17 18 19 20 21 22 23 24 25 26 27 28 29 30 31 32 33 34 35 36 37 38 39 40 41 42 43 44 45 46 47 48 49 50
000
NZUS93 KARX 020259
HRRWXR

CURRENT HOURLY OBSERVATIONS ACROSS
MUCH OF THE UPPER MISSISSIPPI VALLEY
NATIONAL WEATHER SERVICE LA CROSSE WI
1000 PM CDT WED JUL 01 2015


...SOUTHEAST MINNESOTA...


CITY           SKY/WX    TMP DP  RH WIND       PRES   REMARKS
ROCHESTER      CLEAR     58  51  78 N3        30.03S
ROCHESTER/MAYO FAIR      62  51  68 CALM      30.02S
WINONA         CLEAR     59  55  88 CALM      30.02R
AUSTIN         CLEAR     55  52  88 CALM      30.01S
ALBERT LEA     CLEAR     57  52  82 CALM      30.01S
DODGE CENTER   PTCLDY    57  52  82 NE3       30.02S
PRESTON        CLEAR     55  52  90 N3        30.03R
OWATONNA       CLEAR     55  52  88 CALM      30.02S
FARIBAULT      CLEAR     54  52  94 CALM      30.03R
$$

...ELSEWHERE IN MINNESOTA...


CITY           SKY/WX    TMP DP  RH WIND       PRES   REMARKS
MINNEAPOLIS    PTCLDY    67  53  61 SW5       30.02R
INTNL FALLS    PTCLDY    57  55  93 CALM      29.96S
DULUTH         PTCLDY    60  51  72 SE3       30.01S
RED WING       CLEAR     59  55  88 CALM      30.01R
REDWOOD FALLS  CLEAR     62  54  74 E5        29.99S
MANKATO        CLEAR     61  48  63 E7        30.01S
WORTHINGTON    CLOUDY    63  52  67 E7        30.00R
FAIRMONT       PTCLDY    57  52  82 E7        30.00S
$$

...SOUTHWEST WISCONSIN...


CITY           SKY/WX    TMP DP  RH WIND       PRES   REMARKS
LA CROSSE      CLEAR     62  54  74 CALM      30.01R
PRAIRIE DU CHI CLEAR     58  54  86 CALM      30.00R
BOSCOBEL       CLEAR     54  52  93 CALM      30.01R
LONE ROCK      NOT AVBL
PLATTEVILLE    CLEAR     58  54  85 N5        30.00R
FORT MC COY    CLEAR     55  49  81 CALM      30.02R
VIROQUA        FAIR      59  54  82 CALM      30.02R
WIS DELLS      CLEAR     58  50  76 E5        30.01R
$$

...ELSEWHERE IN WISCONSIN...


CITY           SKY/WX    TMP DP  RH WIND       PRES   REMARKS
MILWAUKEE      PTCLDY    53  49  86 N6        30.03S
MADISON        CLEAR     59  51  75 E6        30.01R
GREEN BAY      CLEAR     57  51  80 SE3       30.03R
EAU CLAIRE     CLEAR     60  55  83 CALM      30.00R
BLACK RVR FLS  NOT AVBL
MEDFORD        CLEAR     54  49  84 CALM      30.03R
WAUSAU         CLEAR     64  45  49 N5        30.01R
WIS RAPIDS     CLEAR     57  50  77 CALM      30.02R
MARSHFIELD     CLEAR     59  50  72 CALM      30.02R
RICE LAKE      CLEAR     61  56  83 CALM      30.03R
$$

...NORTHEAST IOWA...


CITY           SKY/WX    TMP DP  RH WIND       PRES   REMARKS
DECORAH          N/A    N/A N/A N/A MISG        N/A
MASON CITY     CLEAR     54  52  93 NE5       30.02R
CHARLES CITY   PTCLDY    57  55  94 NE3       30.01R
OELWEIN        CLOUDY    59  55  88 NE5       29.99S
$$

...ELSEWHERE IN IOWA...


CITY           SKY/WX    TMP DP  RH WIND       PRES   REMARKS
DES MOINES     MOCLDY    69  56  62 E9        29.94R
IOWA CITY      CLOUDY    66  56  70 NE10      29.96R
FORT DODGE     CLOUDY    61  54  77 E7        30.00R
$$

...NORTHERN ILLINOIS...


CITY           SKY/WX    TMP DP  RH WIND       PRES   REMARKS
CHICAGO-OHARE  CLOUDY    56  50  80 NE7       30.00S
CHICAGO-MIDWAY CLOUDY    58  52  80 NE8       30.00R
MOLINE         MOCLDY    68  55  63 NE12      29.95R
ROCKFORD       MOCLDY    60  51  72 E9        30.01R
PEORIA         CLOUDY    71  60  68 E8        29.94R
$$

NOTE: "FAIR" INDICATES FEW OR NO CLOUDS BELOW 12,000 FEET WITH NO
SIGNIFICANT WEATHER AND/OR OBSTRUCTIONS TO VISIBILITY. WIND
SPEEDS ARE IN MILES-PER-HOUR.



USA.gov is the U.S. government's official web portal to all federal, state and local government web resources and services.